TimeCDT,TemperatureF,Dew PointF,Humidity,Sea Level PressureIn,VisibilityMPH,Wind Direction,Wind SpeedMPH,Gust SpeedMPH,PrecipitationIn,Events,Conditions,WindDirDegrees,DateUTC
12:15 AM,63.3,61.0,92,29.58,5.0,SSW,8.1,-,0.11,Rain,Heavy Rain,200,2013-05-30 05:15:00
12:35 AM,63.5,61.0,91,29.59,10.0,South,10.4,-,0.17,Rain,Light Rain,190,2013-05-30 05:35:00
12:55 AM,63.5,60.8,91,29.57,10.0,South,9.2,-,0.18,Rain,Light Rain,180,2013-05-30 05:55:00
1:15 AM,63.5,60.8,91,29.53,10.0,South,8.1,-,N/A,,Mostly Cloudy,180,2013-05-30 06:15:00
1:35 AM,63.1,60.4,91,29.50,10.0,SE,10.4,-,N/A,,Scattered Clouds,130,2013-05-30 06:35:00
1:55 AM,63.0,60.4,91,29.50,10.0,SE,10.4,-,N/A,,Clear,140,2013-05-30 06:55:00
2:15 AM,63.0,60.4,91,29.51,10.0,SE,11.5,-,N/A,,Clear,140,2013-05-30 07:15:00
2:35 AM,62.6,60.1,91,29.51,10.0,SSE,8.1,-,N/A,,Clear,150,2013-05-30 07:35:00
2:55 AM,62.1,59.9,93,29.50,10.0,SSE,10.4,-,N/A,,Clear,150,2013-05-30 07:55:00
3:15 AM,62.1,59.9,93,29.51,10.0,SSE,11.5,-,N/A,,Clear,150,2013-05-30 08:15:00
3:35 AM,62.1,59.9,93,29.53,10.0,SSE,13.8,-,N/A,,Clear,160,2013-05-30 08:35:00
3:55 AM,62.1,59.4,91,29.53,10.0,South,11.5,17.3,N/A,,Clear,170,2013-05-30 08:55:00
4:15 AM,62.1,59.0,90,29.54,10.0,South,12.7,-,N/A,,Clear,190,2013-05-30 09:15:00
4:35 AM,62.1,58.3,87,29.55,10.0,South,15.0,19.6,N/A,,Clear,190,2013-05-30 09:35:00
4:55 AM,62.1,58.1,87,29.55,10.0,South,15.0,21.9,N/A,,Clear,190,2013-05-30 09:55:00
5:15 AM,62.1,58.1,87,29.55,10.0,South,13.8,20.7,N/A,,Clear,190,2013-05-30 10:15:00
5:35 AM,61.9,58.1,87,29.53,10.0,South,12.7,18.4,N/A,,Clear,170,2013-05-30 10:35:00
5:55 AM,61.9,58.1,87,29.55,10.0,South,11.5,18.4,N/A,,Clear,180,2013-05-30 10:55:00
6:15 AM,61.7,58.1,88,29.54,10.0,SSE,11.5,-,N/A,,Clear,160,2013-05-30 11:15:00
6:35 AM,62.1,57.9,86,29.54,10.0,South,16.1,-,N/A,,Clear,180,2013-05-30 11:35:00
6:55 AM,62.6,58.1,85,29.56,10.0,SSE,15.0,-,N/A,,Scattered Clouds,160,2013-05-30 11:55:00
7:15 AM,62.6,58.3,86,29.57,10.0,South,13.8,-,N/A,Rain,Light Rain,170,2013-05-30 12:15:00
7:35 AM,62.6,57.7,84,29.58,10.0,South,15.0,20.7,N/A,,Drizzle,190,2013-05-30 12:35:00
7:55 AM,61.7,58.1,88,29.58,10.0,SSW,12.7,-,0.01,Rain,Light Rain,200,2013-05-30 12:55:00
8:15 AM,61.9,57.6,86,29.57,10.0,SSW,8.1,-,N/A,Rain,Light Rain,200,2013-05-30 13:15:00
8:35 AM,62.6,57.6,84,29.58,10.0,SSW,6.9,-,N/A,Rain,Light Rain,210,2013-05-30 13:35:00
8:55 AM,63.5,57.9,82,29.58,10.0,SW,6.9,-,N/A,Rain,Rain,230,2013-05-30 13:55:00
9:15 AM,63.9,58.3,82,29.58,10.0,WSW,4.6,-,N/A,,Overcast,240,2013-05-30 14:15:00
9:35 AM,64.9,59.0,81,29.58,10.0,SSW,6.9,-,N/A,,Overcast,200,2013-05-30 14:35:00
9:55 AM,64.6,59.9,85,29.59,10.0,South,9.2,-,N/A,,Overcast,180,2013-05-30 14:55:00
10:15 AM,65.7,60.1,82,29.58,10.0,South,10.4,-,N/A,,Overcast,190,2013-05-30 15:15:00
10:35 AM,66.2,59.9,80,29.59,10.0,South,11.5,18.4,0.01,,Mostly Cloudy,180,2013-05-30 15:35:00
10:55 AM,66.6,60.8,82,29.59,10.0,South,12.7,17.3,0.01,,Mostly Cloudy,180,2013-05-30 15:55:00
11:15 AM,66.7,60.3,80,29.60,10.0,South,13.8,19.6,N/A,,Overcast,190,2013-05-30 16:15:00
11:35 AM,67.3,59.9,77,29.59,10.0,South,12.7,-,N/A,,Overcast,190,2013-05-30 16:35:00
11:55 AM,67.5,59.7,76,29.59,10.0,South,11.5,-,N/A,,Mostly Cloudy,170,2013-05-30 16:55:00
12:15 PM,68.2,60.3,76,29.58,10.0,South,10.4,-,N/A,,Scattered Clouds,190,2013-05-30 17:15:00
12:35 PM,68.9,60.4,74,29.58,10.0,South,12.7,18.4,N/A,,Mostly Cloudy,170,2013-05-30 17:35:00
12:55 PM,70.0,60.4,72,29.58,10.0,South,13.8,17.3,N/A,,Mostly Cloudy,170,2013-05-30 17:55:00
1:15 PM,70.3,60.3,70,29.57,10.0,South,11.5,-,N/A,,Mostly Cloudy,170,2013-05-30 18:15:00
1:35 PM,71.6,61.2,70,29.56,10.0,South,11.5,18.4,N/A,,Mostly Cloudy,170,2013-05-30 18:35:00
1:55 PM,71.1,60.4,69,29.55,10.0,South,12.7,18.4,N/A,,Mostly Cloudy,170,2013-05-30 18:55:00
2:15 PM,72.3,61.2,68,29.54,10.0,South,11.5,17.3,N/A,,Mostly Cloudy,170,2013-05-30 19:15:00
2:35 PM,73.2,62.2,68,29.54,10.0,SSW,12.7,-,N/A,,Mostly Cloudy,200,2013-05-30 19:35:00
2:55 PM,73.6,61.5,66,29.54,10.0,South,15.0,-,N/A,,Mostly Cloudy,190,2013-05-30 19:55:00
3:15 PM,74.3,62.1,65,29.53,10.0,SW,13.8,18.4,N/A,,Mostly Cloudy,230,2013-05-30 20:15:00
3:35 PM,74.8,61.5,63,29.54,10.0,SSW,12.7,-,N/A,,Mostly Cloudy,210,2013-05-30 20:35:00
3:55 PM,75.4,61.0,61,29.53,10.0,SSW,10.4,18.4,N/A,,Mostly Cloudy,200,2013-05-30 20:55:00
4:15 PM,75.4,60.4,60,29.53,10.0,SSW,15.0,-,N/A,,Mostly Cloudy,200,2013-05-30 21:15:00
4:35 PM,75.4,61.9,63,29.53,10.0,South,13.8,21.9,N/A,,Scattered Clouds,190,2013-05-30 21:35:00
4:55 PM,75.6,61.2,61,29.53,10.0,SSW,10.4,-,N/A,,Scattered Clouds,210,2013-05-30 21:55:00
5:15 PM,76.5,60.6,58,29.52,10.0,South,13.8,-,N/A,,Scattered Clouds,190,2013-05-30 22:15:00
5:35 PM,77.5,60.8,56,29.52,10.0,SSW,16.1,-,N/A,,Clear,200,2013-05-30 22:35:00
5:55 PM,78.1,59.7,53,29.52,10.0,SSW,12.7,19.6,N/A,,Scattered Clouds,200,2013-05-30 22:55:00
6:15 PM,78.1,59.7,53,29.51,10.0,SSW,11.5,-,N/A,,Scattered Clouds,200,2013-05-30 23:15:00
6:35 PM,76.1,61.0,59,29.52,10.0,South,16.1,19.6,N/A,,Mostly Cloudy,180,2013-05-30 23:35:00
6:55 PM,74.7,61.9,64,29.53,10.0,South,16.1,20.7,N/A,,Overcast,170,2013-05-30 23:55:00
7:15 PM,74.1,63.5,69,29.53,10.0,South,8.1,-,N/A,,Mostly Cloudy,170,2013-05-31 00:15:00
7:35 PM,70.0,54.7,58,29.53,10.0,South,15.0,24.2,N/A,,Mostly Cloudy,170,2013-05-31 00:35:00
7:55 PM,70.2,56.1,61,29.54,10.0,South,9.2,-,N/A,,Scattered Clouds,190,2013-05-31 00:55:00
8:15 PM,69.8,57.0,64,29.56,10.0,South,12.7,-,N/A,,Scattered Clouds,190,2013-05-31 01:15:00
8:35 PM,68.7,58.3,69,29.56,10.0,South,10.4,-,N/A,,Clear,170,2013-05-31 01:35:00
8:55 PM,68.4,58.6,71,29.57,10.0,South,8.1,-,N/A,,Scattered Clouds,180,2013-05-31 01:55:00
9:15 PM,68.4,56.8,67,29.58,10.0,SSW,4.6,-,N/A,,Scattered Clouds,200,2013-05-31 02:15:00
9:35 PM,65.5,56.5,73,29.58,10.0,South,8.1,-,N/A,,Clear,170,2013-05-31 02:35:00
9:55 PM,67.6,51.4,56,29.59,10.0,South,11.5,-,N/A,,Clear,170,2013-05-31 02:55:00
10:15 PM,63.5,55.4,75,29.60,10.0,SSW,6.9,-,N/A,,Clear,200,2013-05-31 03:15:00
10:35 PM,62.2,54.5,76,29.62,10.0,South,5.8,-,N/A,,Clear,180,2013-05-31 03:35:00
10:55 PM,61.5,54.0,76,29.61,10.0,South,8.1,-,N/A,,Clear,180,2013-05-31 03:55:00
11:15 PM,62.8,53.1,71,29.61,10.0,South,9.2,-,N/A,,Clear,190,2013-05-31 04:15:00
11:35 PM,63.5,52.7,68,29.62,10.0,SSW,9.2,16.1,N/A,,Clear,200,2013-05-31 04:35:00
11:55 PM,62.8,52.7,70,29.63,10.0,SW,6.9,-,N/A,,Clear,220,2013-05-31 04:55:00